Regional Weather Roundup
Issued by NWS

Home | Current Version | Previous Version | Graphics & Text | Print | Product List | Glossary On
Versions: 1 2 3 4 5 6 7 8 9 10 11 12 13 14 15 16 17 18 19 20 21 22 23 24 25 26 27 28 29 30 31 32 33 34 35 36 37 38 39 40 41 42 43 44 45 46 47 48 49 50
000
ASUS43 KFSD 250110
RWRSD

WEATHER ROUNDUP FOR SOUTH DAKOTA
NATIONAL WEATHER SERVICE SIOUX FALLS SD
700 PM CST SAT FEB 24 2018

NOTE: "FAIR" INDICATES FEW OR NO CLOUDS BELOW 12,000 FEET WITH NO
SIGNIFICANT WEATHER AND/OR OBSTRUCTIONS TO VISIBILITY.


SDZ001>005-009-010-012>017-250200-
NORTHWEST AND NORTH CENTRAL SOUTH DAKOTA

CITY           SKY/WX    TMP DP  RH WIND       PRES   REMARKS
BUFFALO          N/A     15   8  73 W14       29.57S WCI   0
FAITH            N/A     16  10  77 W15       29.66F WCI   1
MOBRIDGE       CLEAR      7   5  91 CALM      29.63S
$$

SDZ012>016-024>037-041>051-057-063-072>074-250200-
SOUTHWEST AND SOUTH CENTRAL SOUTH DAKOTA

CITY           SKY/WX    TMP DP  RH WIND       PRES   REMARKS
RAPID CTY ARPT PTCLDY    16   9  74 N9        29.70R WCI   4
PIERRE         CLEAR     12   9  87 W10       29.69R WCI  -1
CUSTER         PTCLDY    17   3  54 W8        29.62R WCI   7
ELLSWORTH AFB  PTCLDY    22  11  63 NW6       29.68S WCI  14
PHILIP         PTCLDY    17  11  77 W14       29.73R WCI   3
PINE RIDGE     PTCLDY    24  13  62 W13       29.73R WCI  12
SPEARFISH        N/A     25   7  46 W21G28    29.65S WCI  10
WINNER         FAIR      16  11  80 W13       29.72R WCI   2
$$

SDZ004>011-016>023-039-040-250200-
NORTHEAST SOUTH DAKOTA

CITY           SKY/WX    TMP DP  RH WIND       PRES   REMARKS
ABERDEEN       LGT SNOW  16  13  88 NW13      29.67S FOG     WCI   2
WATERTOWN      CLOUDY    13  10  88 SW5       29.58F WCI   5
BROOKINGS      FLURRIES  18  14  86 W15       29.59F WCI   3
SISSETON         N/A     14  12  92 NW9       29.63F WCI   2
$$

SDZ017-020-022-023-036>040-048>070-250200-
SOUTHEAST SOUTH DAKOTA

CITY           SKY/WX    TMP DP  RH WIND       PRES   REMARKS
SIOUX FALLS    FLURRIES  20  17  88 W10       29.63S WCI   9
HURON          PTCLDY     4   2  91 W10       29.68R WCI -11
CHAMBERLAIN    CLEAR     12   9  89 W10       29.71R WCI  -2
MITCHELL       CLEAR     13  10  88 W9        29.70R WCI   1
YANKTON        CLOUDY    24  20  84 NW8       29.68R WCI  15
$$

ABBREVIATIONS USED IN REMARKS
   TC - TEMPERATURE IN CELSIUS
  WCI - WIND CHILL INDEX
   HX - HEAT INDEX
  VSB - VISIBILITY





USA.gov is the U.S. government's official web portal to all federal, state and local government web resources and services.